Miscellaneous Local Product
Issued by NWS Hastings, NE

Home | Current Version | Previous Version | Text Only | Print | Product List | Glossary Off
Versions: 1 2 3 4 5 6 7 8 9 10 11 12 13 14 15 16 17 18 19 20 21 22 23 24 25 26 27 28 29 30 31 32 33 34 35 36 37 38 39 40 41 42 43 44 45 46 47 48 49 50

000
AXUS43 KGID 250902
MISGRI

GID CWA HOURLY WEATHER ROUNDUP
NATIONAL WEATHER SERVICE HASTINGS NE
400 AM CDT SUN SEP 25 2016

NOTE: "FAIR" INDICATES FEW OR NO CLOUDS BELOW 12,000 FEET WITH NO
SIGNIFICANT WEATHER AND/OR OBSTRUCTIONS TO VISIBILITY.

...SOUTH CENTRAL NEBRASKA...

CITY           SKY/WX    TMP DP  RH WIND       PRES   REMARKS
GRAND ISLAND   CLEAR     56  43  61 NW15      30.08S
HASTINGS       CLEAR     55  43  63 NW12      30.10S
KEARNEY        CLEAR     55  39  54 NW9       30.11S
ORD            CLEAR     55  41  59 NW16G28   30.08S
YORK           PTCLDY    54  50  87 NW7       30.07R
AURORA         CLOUDY    55  47  76 NW9       30.08R
LEXINGTON      CLEAR     50  42  73 NW12      30.14F
HOLDREGE       CLEAR     54  41  62 NW8       30.12S
HEBRON         CLOUDY    59  51  76 N10       30.07R

...NEBRASKA PANHANDLE...

CITY           SKY/WX    TMP DP  RH WIND       PRES   REMARKS
CHADRON        CLEAR     50  41  71 W15       30.24R
ALLIANCE       CLEAR     46  40  79 W16       30.25R
SCOTTSBLUFF    CLEAR     42  38  85 NW7       30.30R
SIDNEY         CLEAR     44  38  79 NW14      30.29R

...WESTERN AND NORTH CENTRAL NEBRASKA...

CITY           SKY/WX    TMP DP  RH WIND       PRES   REMARKS
VALENTINE      CLOUDY    53  41  63 W14       30.11S
AINSWORTH      CLEAR     52  43  71 W12       30.11R
ONEILL         CLEAR     54  42  63 W10       30.08R
BROKEN BOW     CLEAR     54  42  64 NW12      30.13R
IMPERIAL       CLEAR     50  40  68 NW14      30.24R
NORTH PLATTE   CLEAR     53  42  66 W10       30.20R
MCCOOK         CLEAR     49  42  77 W9        30.19R

...EASTERN NEBRASKA...

CITY           SKY/WX    TMP DP  RH WIND       PRES   REMARKS
NORFOLK        PTCLDY    53  45  74 W8        30.05R
SO SIOUX CITY  CLOUDY    62  53  72 NW13      30.00R
TEKAMAH        CLOUDY    61  52  72 NW16      30.00R
COLUMBUS       CLOUDY   N/A N/A N/A W6        30.05S
ALBION         CLEAR     55  44  66 NW13      30.07S
OMAHA EPPLEY   LGT RAIN  69  64  84 W5        29.98R
OFFUTT AFB     CLOUDY    66  66 100 S2        29.97F
MILLARD        CLOUDY    66  65  94 W5        30.00R
LINCOLN        CLOUDY    64  54  69 N18       30.04R
NEBRASKA CITY  HVY RAIN  63  61  92 W5        30.02R
BEATRICE       CLOUDY    65  64  98 CALM      30.02S
FALLS CITY     PTCLDY    69  68  96 S7        30.00F

...NORTHERN KANSAS...

CITY           SKY/WX    TMP DP  RH WIND       PRES   REMARKS
GOODLAND       MOCLDY    47  41  80 NW12      30.26R
HILL CITY      CLEAR     55  45  68 W6        30.16R
NORTON         SUNNY     55  37  50 NW16      30.15R
PHILLIPSBURG   CLEAR     57  45  62 NW13      30.12R
SMITH CENTER   CLEAR     54  45  71 NW13      30.11S
HAYS           CLEAR     57  43  58 N14       30.13R
CONCORDIA      MOCLDY    62  57  83 NW12G25   30.07R
SALINA         CLOUDY    68  66  93 S5        30.04R
TOPEKA         PTCLDY    68  66  93 SW3       30.03S



USA.gov is the U.S. government's official web portal to all federal, state and local government web resources and services.